| time (UTC) | temp F | wind direction | speed MPH | gust MPH | rain 1hr in | rain 24hr in | rain mn in | humidity % | barometer mb |
| 20260831031021 | 74 | 0.0 | 1.0 | 0.00 | 0.00 | 0.00 | 50 | 1030.4 | |
| 20260831030200 | 73 | 0.0 | 1.0 | 0.00 | 0.00 | 0.00 | 51 | 1030.8 | |
| 20260831025020 | 72 | 0.0 | 1.0 | 0.00 | 0.00 | 0.00 | 50 | 1030.9 | |
| 20260831024021 | 72 | 0.0 | 1.0 | 0.00 | 0.00 | 0.00 | 49 | 1031.0 | |
| 20260831023022 | 72 | 0.0 | 2.0 | 0.00 | 0.00 | 0.00 | 58 | 1031.2 | |
| 20260831022020 | 72 | 180 | 1.0 | 2.0 | 0.00 | 0.00 | 0.00 | 54 | 1031.3 |
| 20260831021021 | 72 | 0.0 | 2.0 | 0.00 | 0.00 | 0.00 | 59 | 1031.5 | |
| 20260831020021 | 72 | 0.0 | 1.0 | 0.00 | 0.00 | 0.00 | 57 | 1031.7 | |
| 20260831015202 | 70 | 0.0 | 1.0 | 0.00 | 0.00 | 0.00 | 60 | 1031.9 | |
| 20260831014022 | 71 | 0.0 | 2.0 | 0.00 | 0.00 | 0.00 | 61 | 1031.9 | |
| 20260831013021 | 70 | 0.0 | 1.0 | 0.00 | 0.00 | 0.00 | 61 | 1032.0 | |
| 20260831012021 | 69 | 0.0 | 1.0 | 0.00 | 0.00 | 0.00 | 66 | 1032.2 | |
| 20260831011021 | 67 | 0.0 | 1.0 | 0.00 | 0.00 | 0.00 | 68 | 1032.5 | |
| 20260831010022 | 67 | 0.0 | 1.0 | 0.00 | 0.00 | 0.00 | 70 | 1032.5 | |
| 20260831005021 | 66 | 0.0 | 1.0 | 0.00 | 0.00 | 0.00 | 71 | 1032.6 | |
| 20260831004021 | 66 | 0.0 | 0.0 | 0.00 | 0.00 | 0.00 | 74 | 1032.6 | |
| 20260831003021 | 65 | 0.0 | 0.0 | 0.00 | 0.00 | 0.00 | 76 | 1032.7 | |
| 20260831002021 | 64 | 0.0 | 1.0 | 0.00 | 0.00 | 0.00 | 75 | 1032.9 | |
| 20260831001021 | 65 | 0.0 | 1.0 | 0.00 | 0.00 | 0.00 | 74 | 1032.8 | |
| 20260831000021 | 64 | 0.0 | 0.0 | 0.00 | 0.00 | 0.00 | 78 | 1032.8 | |
| 20260830235021 | 64 | 0.0 | 1.0 | 0.00 | 0.00 | 0.00 | 76 | 1032.8 | |
| 20260830234201 | 64 | 0.0 | 1.0 | 0.00 | 0.00 | 0.00 | 79 | 1032.9 | |
| 20260830233022 | 62 | 0.0 | 0.0 | 0.00 | 0.00 | 0.00 | 80 | 1033.0 | |
| 20260830232021 | 61 | 0.0 | 0.0 | 0.00 | 0.00 | 0.00 | 80 | 1032.9 | |
| 20260830231021 | 59 | 0.0 | 1.0 | 0.00 | 0.00 | 0.00 | 83 | 1032.8 | |
| 20260830230021 | 58 | 0.0 | 0.0 | 0.00 | 0.00 | 0.00 | 87 | 1032.8 | |
| 20260830225021 | 56 | 0.0 | 0.0 | 0.00 | 0.00 | 0.00 | 89 | 1032.9 | |
| 20260830224020 | 55 | 0.0 | 0.0 | 0.00 | 0.00 | 0.00 | 96 | 1032.8 | |
| 20260830223020 | 53 | 0.0 | 0.0 | 0.00 | 0.00 | 0.00 | 99 | 1032.6 | |
| 20260830222021 | 51 | 0.0 | 0.0 | 0.00 | 0.00 | 0.00 | 99 | 1032.6 | |
| 20260830221021 | 50 | 0.0 | 0.0 | 0.00 | 0.00 | 0.00 | 99 | 1032.4 | |
| 20260830220342 | 48 | 0.0 | 1.0 | 0.00 | 0.00 | 0.00 | 99 | 1032.4 | |
| 20260830215020 | 47 | 0.0 | 1.0 | 0.00 | 0.00 | 0.00 | 99 | 1032.2 | |
| 20260830214202 | 46 | 0.0 | 0.0 | 0.00 | 0.00 | 0.00 | 99 | 1032.1 | |
| 20260830213021 | 45 | 0.0 | 0.0 | 0.00 | 0.00 | 0.00 | 99 | 1032.3 | |
| 20260830212201 | 43 | 0.0 | 0.0 | 0.00 | 0.00 | 0.00 | 98 | 1031.9 | |
| 20260830211200 | 42 | 0.0 | 0.0 | 0.00 | 0.00 | 0.00 | 98 | 1032.0 | |
| 20260830210021 | 41 | 0.0 | 0.0 | 0.00 | 0.00 | 0.00 | 98 | 1031.9 | |
| 20260830205202 | 40 | 0.0 | 0.0 | 0.00 | 0.00 | 0.00 | 98 | 1031.8 | |
| 20260830204021 | 39 | 0.0 | 0.0 | 0.00 | 0.00 | 0.00 | 98 | 1031.7 | |
| 20260830203021 | 38 | 0.0 | 0.0 | 0.00 | 0.00 | 0.00 | 97 | 1031.7 | |
| 20260830202020 | 38 | 0.0 | 0.0 | 0.00 | 0.00 | 0.00 | 97 | 1031.7 | |
| 20260830201022 | 38 | 0.0 | 0.0 | 0.00 | 0.00 | 0.00 | 97 | 1031.7 | |
| 20260830200020 | 38 | 0.0 | 0.0 | 0.00 | 0.00 | 0.00 | 97 | 1031.6 | |
| 20260830195020 | 38 | 0.0 | 0.0 | 0.00 | 0.00 | 0.00 | 97 | 1031.5 | |
| 20260830194021 | 38 | 0.0 | 0.0 | 0.00 | 0.00 | 0.00 | 97 | 1031.5 | |
| 20260830193020 | 38 | 0.0 | 0.0 | 0.00 | 0.00 | 0.00 | 97 | 1031.4 | |
| 20260830192021 | 38 | 0.0 | 0.0 | 0.00 | 0.00 | 0.00 | 96 | 1031.4 | |
| 20260830191020 | 38 | 0.0 | 0.0 | 0.00 | 0.00 | 0.00 | 96 | 1031.4 | |
| 20260830190020 | 38 | 0.0 | 0.0 | 0.00 | 0.00 | 0.00 | 96 | 1031.2 | |
| 20260830185020 | 39 | 0.0 | 0.0 | 0.00 | 0.00 | 0.00 | 96 | 1031.3 | |
| 20260830184020 | 40 | 0.0 | 0.0 | 0.00 | 0.00 | 0.00 | 97 | 1031.2 | |
| 20260830183020 | 39 | 0.0 | 0.0 | 0.00 | 0.00 | 0.00 | 97 | 1031.2 | |
| 20260830182020 | 39 | 0.0 | 0.0 | 0.00 | 0.00 | 0.00 | 96 | 1031.3 | |
| 20260830181020 | 39 | 0.0 | 0.0 | 0.00 | 0.00 | 0.00 | 96 | 1031.2 | |
| 20260830180021 | 39 | 0.0 | 0.0 | 0.00 | 0.00 | 0.00 | 97 | 1031.2 | |
| 20260830175021 | 39 | 0.0 | 0.0 | 0.00 | 0.00 | 0.00 | 96 | 1031.0 | |
| 20260830174021 | 39 | 0.0 | 0.0 | 0.00 | 0.00 | 0.00 | 96 | 1031.0 | |
| 20260830173020 | 40 | 0.0 | 0.0 | 0.00 | 0.00 | 0.00 | 96 | 1031.1 | |
| 20260830172020 | 40 | 0.0 | 0.0 | 0.00 | 0.00 | 0.00 | 96 | 1031.0 | |
| 20260830171020 | 40 | 0.0 | 0.0 | 0.00 | 0.00 | 0.00 | 96 | 1030.8 | |
| 20260830170020 | 41 | 0.0 | 0.0 | 0.00 | 0.00 | 0.00 | 96 | 1030.8 | |
| 20260830165343 | 41 | 0.0 | 0.0 | 0.00 | 0.00 | 0.00 | 96 | 1030.9 | |
| 20260830164022 | 41 | 0.0 | 0.0 | 0.00 | 0.00 | 0.00 | 96 | 1030.9 | |
| 20260830163020 | 42 | 0.0 | 0.0 | 0.00 | 0.00 | 0.00 | 96 | 1030.9 | |
| 20260830162021 | 42 | 0.0 | 0.0 | 0.00 | 0.00 | 0.00 | 97 | 1030.9 | |
| 20260830161020 | 42 | 0.0 | 0.0 | 0.00 | 0.00 | 0.00 | 96 | 1031.1 | |
| 20260830160020 | 41 | 0.0 | 0.0 | 0.00 | 0.00 | 0.00 | 96 | 1031.2 | |
| 20260830155200 | 41 | 0.0 | 0.0 | 0.00 | 0.00 | 0.00 | 95 | 1031.1 | |
| 20260830154022 | 41 | 0.0 | 0.0 | 0.00 | 0.00 | 0.00 | 95 | 1031.3 | |
| 20260830153020 | 41 | 0.0 | 0.0 | 0.00 | 0.00 | 0.00 | 95 | 1031.4 | |
| 20260830152021 | 42 | 0.0 | 0.0 | 0.00 | 0.00 | 0.00 | 95 | 1031.4 | |
| 20260830151020 | 42 | 0.0 | 0.0 | 0.00 | 0.00 | 0.00 | 95 | 1031.4 | |
| 20260830150340 | 42 | 0.0 | 0.0 | 0.00 | 0.00 | 0.00 | 95 | 1031.4 | |
| 20260830145021 | 42 | 0.0 | 0.0 | 0.00 | 0.00 | 0.00 | 95 | 1031.6 | |
| 20260830144020 | 42 | 0.0 | 0.0 | 0.00 | 0.00 | 0.00 | 94 | 1031.6 | |
| 20260830143021 | 42 | 0.0 | 0.0 | 0.00 | 0.00 | 0.00 | 94 | 1031.7 | |
| 20260830142022 | 43 | 0.0 | 0.0 | 0.00 | 0.00 | 0.00 | 94 | 1031.7 | |
| 20260830141020 | 43 | 0.0 | 0.0 | 0.00 | 0.00 | 0.00 | 94 | 1031.7 | |
| 20260830140020 | 43 | 0.0 | 0.0 | 0.00 | 0.00 | 0.00 | 94 | 1031.6 | |
| 20260830135021 | 44 | 0.0 | 0.0 | 0.00 | 0.00 | 0.00 | 94 | 1031.4 | |
| 20260830134020 | 44 | 0.0 | 0.0 | 0.00 | 0.00 | 0.00 | 94 | 1031.3 | |
| 20260830133021 | 44 | 0.0 | 0.0 | 0.00 | 0.00 | 0.00 | 94 | 1031.5 | |
| 20260830132200 | 45 | 0.0 | 0.0 | 0.00 | 0.00 | 0.00 | 94 | 1031.4 | |
| 20260830131020 | 45 | 0.0 | 0.0 | 0.00 | 0.00 | 0.00 | 94 | 1031.4 | |
| 20260830130020 | 45 | 0.0 | 0.0 | 0.00 | 0.00 | 0.00 | 94 | 1031.3 | |
| 20260830125021 | 45 | 0.0 | 0.0 | 0.00 | 0.00 | 0.00 | 94 | 1031.2 | |
| 20260830124020 | 45 | 0.0 | 0.0 | 0.00 | 0.00 | 0.00 | 93 | 1031.2 | |
| 20260830123020 | 45 | 0.0 | 0.0 | 0.00 | 0.00 | 0.00 | 92 | 1031.1 | |
| 20260830122020 | 45 | 0.0 | 0.0 | 0.00 | 0.00 | 0.00 | 92 | 1030.9 | |
| 20260830121020 | 45 | 0.0 | 0.0 | 0.00 | 0.00 | 0.00 | 92 | 1031.0 | |
| 20260830120020 | 46 | 0.0 | 0.0 | 0.00 | 0.00 | 0.00 | 92 | 1031.1 | |
| 20260830115020 | 46 | 0.0 | 0.0 | 0.00 | 0.00 | 0.00 | 92 | 1031.2 | |
| 20260830114020 | 46 | 0.0 | 0.0 | 0.00 | 0.00 | 0.00 | 91 | 1031.2 | |
| 20260830113020 | 47 | 0.0 | 0.0 | 0.00 | 0.00 | 0.00 | 91 | 1031.2 | |
| 20260830112021 | 48 | 0.0 | 0.0 | 0.00 | 0.00 | 0.00 | 91 | 1031.3 | |
| 20260830111024 | 48 | 0.0 | 0.0 | 0.00 | 0.00 | 0.00 | 91 | 1031.3 | |
| 20260830110019 | 49 | 0.0 | 0.0 | 0.00 | 0.00 | 0.00 | 91 | 1031.2 | |
| 20260830105020 | 49 | 0.0 | 0.0 | 0.00 | 0.00 | 0.00 | 90 | 1031.1 | |
| 20260830104021 | 50 | 0.0 | 0.0 | 0.00 | 0.00 | 0.00 | 90 | 1031.2 | |
| 20260830103019 | 50 | 0.0 | 0.0 | 0.00 | 0.00 | 0.00 | 90 | 1031.1 | |
| 20260830102020 | 50 | 0.0 | 0.0 | 0.00 | 0.00 | 0.00 | 89 | 1031.1 | |
| 20260830101020 | 51 | 0.0 | 0.0 | 0.00 | 0.00 | 0.00 | 89 | 1031.0 | |
| 20260830100020 | 51 | 0.0 | 0.0 | 0.00 | 0.00 | 0.00 | 87 | 1030.8 | |
| 20260830095020 | 51 | 0.0 | 0.0 | 0.00 | 0.00 | 0.00 | 87 | 1030.5 | |
| 20260830094021 | 52 | 0.0 | 0.0 | 0.00 | 0.00 | 0.00 | 86 | 1030.3 | |
| 20260830093020 | 52 | 0.0 | 0.0 | 0.00 | 0.00 | 0.00 | 85 | 1030.3 | |
| 20260830092200 | 53 | 0.0 | 0.0 | 0.00 | 0.00 | 0.00 | 84 | 1030.3 | |
| 20260830091020 | 54 | 0.0 | 0.0 | 0.00 | 0.00 | 0.00 | 84 | 1030.2 | |
| 20260830090200 | 55 | 0.0 | 0.0 | 0.00 | 0.00 | 0.00 | 83 | 1030.1 | |
| 20260830085022 | 56 | 0.0 | 0.0 | 0.00 | 0.00 | 0.00 | 81 | 1030.0 | |
| 20260830084020 | 57 | 0.0 | 0.0 | 0.00 | 0.00 | 0.00 | 79 | 1029.9 | |
| 20260830083020 | 57 | 0.0 | 0.0 | 0.00 | 0.00 | 0.00 | 78 | 1029.9 | |
| 20260830082021 | 58 | 0.0 | 0.0 | 0.00 | 0.00 | 0.00 | 77 | 1029.8 | |
| 20260830081200 | 59 | 0.0 | 0.0 | 0.00 | 0.00 | 0.00 | 75 | 1029.8 | |
| 20260830080020 | 61 | 0.0 | 0.0 | 0.00 | 0.00 | 0.00 | 73 | 1029.7 | |
| 20260830075202 | 62 | 0.0 | 0.0 | 0.00 | 0.00 | 0.00 | 71 | 1029.7 | |
| 20260830074020 | 64 | 0.0 | 0.0 | 0.00 | 0.00 | 0.00 | 68 | 1029.7 | |
| 20260830073020 | 65 | 0.0 | 0.0 | 0.00 | 0.00 | 0.00 | 64 | 1029.6 | |
| 20260830072022 | 66 | 0.0 | 0.0 | 0.00 | 0.00 | 0.00 | 63 | 1029.5 | |
| 20260830071022 | 67 | 0.0 | 0.0 | 0.00 | 0.00 | 0.00 | 62 | 1029.5 | |
| 20260830070020 | 68 | 0.0 | 0.0 | 0.00 | 0.00 | 0.00 | 60 | 1029.5 | |
| 20260830065022 | 69 | 0.0 | 1.0 | 0.00 | 0.00 | 0.00 | 57 | 1029.5 | |
| 20260830064022 | 71 | 0.0 | 1.0 | 0.00 | 0.00 | 0.00 | 56 | 1029.6 | |
| 20260830063022 | 72 | 0.0 | 0.0 | 0.00 | 0.00 | 0.00 | 54 | 1029.6 | |
| 20260830062021 | 76 | 0.0 | 1.0 | 0.00 | 0.00 | 0.00 | 48 | 1029.6 | |
| 20260830061022 | 78 | 0.0 | 1.0 | 0.00 | 0.00 | 0.00 | 47 | 1029.7 | |
| 20260830060203 | 78 | 0.0 | 1.0 | 0.00 | 0.00 | 0.00 | 48 | 1029.7 | |
| 20260830055022 | 77 | 0.0 | 0.0 | 0.00 | 0.00 | 0.00 | 49 | 1029.7 | |
| 20260830054200 | 76 | 0.0 | 1.0 | 0.00 | 0.00 | 0.00 | 49 | 1029.7 | |
| 20260830053023 | 76 | 0.0 | 0.0 | 0.00 | 0.00 | 0.00 | 48 | 1029.8 | |
| 20260830052020 | 76 | 0.0 | 0.0 | 0.00 | 0.00 | 0.00 | 50 | 1029.8 | |
| 20260830051020 | 74 | 0.0 | 1.0 | 0.00 | 0.00 | 0.00 | 53 | 1029.8 | |
| 20260830050020 | 72 | 0.0 | 1.0 | 0.00 | 0.00 | 0.00 | 52 | 1029.8 | |
| 20260830045022 | 72 | 0.0 | 1.0 | 0.00 | 0.00 | 0.00 | 52 | 1029.9 | |
| 20260830044020 | 74 | 0.0 | 0.0 | 0.00 | 0.00 | 0.00 | 50 | 1030.0 | |
| 20260830043022 | 74 | 0.0 | 0.0 | 0.00 | 0.00 | 0.00 | 50 | 1030.0 | |
| 20260830042021 | 75 | 0.0 | 2.0 | 0.00 | 0.00 | 0.00 | 49 | 1030.2 | |
| 20260830041206 | 75 | 0.0 | 0.0 | 0.00 | 0.00 | 0.00 | 51 | 1030.3 | |
| 20260830040022 | 74 | 0.0 | 1.0 | 0.00 | 0.00 | 0.00 | 49 | 1030.3 | |
| 20260830035021 | 76 | 0.0 | 0.0 | 0.00 | 0.00 | 0.00 | 50 | 1030.4 | |
| 20260830034020 | 74 | 0.0 | 0.0 | 0.00 | 0.00 | 0.00 | 52 | 1030.4 | |
| 20260830033020 | 73 | 0.0 | 1.0 | 0.00 | 0.00 | 0.00 | 55 | 1030.4 | |
| 20260830032022 | 74 | 0.0 | 1.0 | 0.00 | 0.00 | 0.00 | 53 | 1030.5 | |
| 20260830031202 | 74 | 0.0 | 1.0 | 0.00 | 0.00 | 0.00 | 53 | 1030.6 |